GFSNIL_sfc_wetblb_159.txt.gz
Wetbulb
46.77 46.51 46.45 46.22 45.93 45.47 44.89 44.58 43.93 43.29 42.85 41.49 40.07 40.09 40.75 40.30 41.69 42.84 43.11 42.93 42.77 42.12
46.49 46.10 46.11 46.37 45.97 45.74 45.16 44.16 43.48 42.94 42.06 40.48 39.13 39.27 39.87 39.44 39.47 40.99 41.90 42.26 41.69 41.00
45.02 45.54 45.77 45.70 45.19 44.83 44.78 43.69 42.94 42.31 41.23 39.87 38.64 38.62 38.95 38.76 38.83 39.50 40.33 40.48 39.61 39.24
43.65 44.23 44.59 44.38 44.73 44.64 44.25 43.51 42.53 42.02 40.90 39.19 38.18 38.05 37.75 37.97 37.89 38.10 38.77 39.00 38.12 37.57
42.11 42.60 43.01 43.60 44.16 44.11 43.40 43.06 42.60 41.60 40.21 39.17 38.21 37.72 36.92 36.92 37.50 36.87 37.22 37.76 37.06 36.73
40.52 40.73 41.32 42.37 43.29 43.47 42.91 42.48 41.83 40.49 39.57 38.79 37.93 37.01 36.84 36.87 36.94 36.68 37.16 37.51 36.76 36.52
39.79 40.09 40.90 41.87 42.69 42.66 42.44 41.61 41.23 40.33 39.49 38.23 37.86 37.09 36.60 36.32 36.43 36.42 36.17 36.29 36.77 36.36
39.37 39.85 40.41 41.08 41.65 41.87 41.56 41.21 40.59 39.58 38.71 38.10 37.17 37.00 36.19 36.06 36.13 35.94 35.56 35.70 36.13 36.50
38.37 38.54 38.80 39.24 39.69 40.24 40.40 40.37 39.88 39.17 38.27 37.85 36.89 38.43 39.34 37.83 35.97 35.54 35.15 34.73 34.80 35.77
37.68 37.57 37.89 37.95 38.04 38.23 38.53 38.66 38.33 38.17 37.54 37.04 37.15 38.85 40.30 40.46 37.05 35.46 35.26 34.92 34.79 34.34
36.80 36.56 36.84 36.54 36.68 36.96 37.34 37.28 37.20 37.03 37.15 36.44 36.65 38.77 39.91 40.88 39.67 36.30 35.25 35.15 34.60 34.40
35.90 35.43 35.36 35.03 35.27 35.77 35.81 35.66 35.70 35.85 35.43 34.98 35.31 37.41 38.85 39.50 38.94 36.28 34.89 34.19 34.22 34.24
35.62 34.88 34.24 34.36 34.23 34.77 34.19 33.46 33.62 33.30 34.02 34.26 34.46 36.04 37.55 38.31 37.59 35.50 34.93 33.61 33.38 36.07
34.85 33.96 34.00 33.71 33.32 32.92 32.13 31.50 31.41 31.31 31.96 31.79 32.07 32.87 35.81 37.59 36.67 35.97 34.32 32.96 32.88 34.03

GFSNIL_sfc_wetblb_162.txt.gz
Wetbulb
52.28 51.85 51.84 52.02 52.01 51.86 51.69 51.80 51.66 49.56 48.54 47.75 46.50 45.08 44.30 44.37 44.33 44.81 45.22 45.04 45.39 45.06
50.19 50.22 50.28 50.91 51.51 51.51 52.00 51.35 50.92 49.87 48.49 47.73 46.36 44.90 43.89 43.53 43.29 43.56 44.16 44.58 45.09 44.27
48.62 48.99 49.13 49.61 49.70 50.43 51.01 51.08 50.06 49.38 48.52 47.56 46.27 44.88 43.54 43.10 43.19 42.41 43.12 43.52 43.56 43.38
47.48 47.44 47.55 47.75 48.48 49.36 50.10 50.11 49.46 49.01 48.36 47.22 46.02 44.95 43.41 42.77 42.39 41.49 41.76 42.65 42.31 42.05
46.44 46.59 46.66 46.87 47.41 48.35 48.72 49.34 48.62 48.37 47.61 47.01 46.15 45.33 43.64 42.29 41.64 40.79 40.56 41.22 41.43 40.87
45.62 45.61 45.73 46.32 47.07 47.90 48.15 48.34 48.23 47.06 46.73 46.61 46.23 45.24 44.29 42.98 42.01 41.26 40.93 40.95 40.76 40.61
44.25 44.26 44.62 45.25 46.03 46.65 47.10 46.88 47.06 46.93 46.42 46.05 45.78 45.11 44.18 43.06 42.01 41.44 40.97 40.80 40.58 40.49
43.39 43.84 43.93 43.82 43.97 44.41 44.87 45.04 45.19 44.70 44.99 45.06 44.38 43.87 44.13 43.09 42.02 41.44 40.92 40.61 39.97 40.18
42.39 42.53 42.69 42.80 42.85 43.21 43.28 43.58 43.46 43.19 43.23 43.07 42.96 43.14 41.75 41.33 42.48 41.89 40.44 39.60 39.86 39.71
41.36 41.27 41.54 41.59 41.82 41.97 41.96 42.52 42.35 42.54 42.45 42.09 42.63 42.31 41.20 41.55 41.66 41.88 40.94 39.76 39.35 38.81
40.53 40.31 40.82 40.71 40.82 41.14 41.23 40.95 40.65 40.77 40.92 40.82 41.14 40.51 40.18 40.60 41.51 41.79 41.61 40.33 38.92 38.23
40.17 39.53 39.84 39.70 39.77 40.04 39.73 39.72 39.53 39.25 39.02 39.04 39.65 39.91 38.93 39.15 40.51 40.76 41.27 40.73 39.29 36.79
39.78 39.15 38.93 39.05 38.85 39.16 38.93 38.15 38.11 37.94 38.68 38.07 37.37 38.26 37.36 37.91 39.55 39.45 39.80 40.11 37.98 37.21
39.49 38.72 38.73 38.47 38.51 38.06 37.65 37.21 37.37 37.25 38.49 38.18 37.82 37.36 36.90 37.43 38.07 38.83 38.71 38.19 36.08 35.73

GFSNIL_sfc_wetblb_165.txt.gz
Wetbulb
53.63 52.24 51.84 51.88 52.10 52.19 52.55 53.35 54.27 53.35 51.48 50.21 49.34 48.01 46.57 45.76 45.80 45.81 45.94 45.75 45.69 45.22
51.02 50.79 50.49 50.63 50.97 51.49 52.10 52.19 52.85 52.82 51.48 50.47 49.28 47.97 46.55 45.03 44.69 44.86 44.94 45.29 45.54 44.80
49.37 49.54 49.27 49.22 48.86 49.64 50.45 51.22 51.61 51.59 50.93 50.19 49.41 48.23 46.53 44.96 44.94 43.93 43.93 43.80 43.78 44.20
48.31 48.23 48.18 48.00 48.30 48.54 49.24 50.01 50.34 50.56 50.25 49.85 49.03 48.37 46.59 45.34 44.71 43.52 43.03 43.02 42.68 42.50
47.53 47.69 47.42 47.45 47.92 48.48 48.38 49.55 49.80 49.71 49.24 49.07 48.82 48.44 46.99 45.50 44.74 43.03 42.13 42.00 41.83 41.58
46.51 46.28 45.92 46.12 46.77 47.63 47.99 48.51 49.02 48.82 47.97 47.77 48.09 47.73 47.25 46.19 44.97 43.97 43.03 42.27 41.39 41.14
45.08 44.96 45.01 45.24 45.30 45.36 45.97 46.25 46.76 46.99 46.86 46.77 46.60 46.62 46.41 45.96 45.20 44.27 43.48 42.82 41.88 41.17
44.48 44.70 44.65 44.49 44.47 44.69 44.71 44.61 44.82 44.45 44.76 45.19 45.20 45.11 44.86 44.75 44.52 43.57 43.16 43.19 42.12 41.21
43.48 43.35 43.32 43.33 43.06 43.37 43.70 43.97 44.02 43.87 43.92 43.83 43.56 44.28 43.92 42.56 41.75 42.62 43.08 41.97 42.15 41.55
42.54 42.04 42.44 42.55 42.38 42.40 42.44 42.83 42.54 42.64 42.75 42.27 42.87 43.57 42.22 41.89 41.04 41.44 41.80 42.16 41.61 40.27
42.25 41.60 41.87 41.73 41.44 41.79 42.01 41.61 41.65 41.47 41.56 41.10 41.42 42.20 40.97 40.49 39.96 40.65 41.50 41.99 41.68 40.11
41.81 40.79 40.64 40.34 40.75 41.05 40.70 40.56 40.62 40.57 39.92 39.62 40.07 41.22 39.49 38.57 38.78 39.66 40.37 41.57 42.03 40.40
41.30 40.45 39.71 39.99 39.92 40.30 40.02 39.48 39.72 39.13 39.69 40.34 38.53 40.72 38.87 37.95 37.78 38.02 39.21 40.54 40.59 40.17
40.27 39.81 39.81 39.41 39.42 39.04 38.66 38.43 38.33 38.24 39.56 39.69 39.75 38.59 38.41 37.85 37.05 37.50 38.12 38.54 38.16 37.86

GFSNIL_sfc_wetblb_168.txt.gz
Wetbulb
49.34 47.05 46.35 46.20 46.03 45.91 46.38 47.29 48.78 48.74 47.13 46.34 45.93 44.65 42.93 41.25 40.89 40.71 40.22 40.17 40.65 40.89
45.66 45.23 44.73 44.97 44.91 44.94 45.84 48.02 47.45 47.72 47.80 46.79 45.72 44.70 42.72 40.65 39.80 39.79 39.44 39.39 40.10 40.18
44.27 44.35 43.74 43.29 42.96 43.53 44.18 45.39 46.21 46.90 47.15 46.65 46.07 44.88 42.90 41.01 40.55 39.59 39.17 39.47 39.07 39.29
43.23 43.46 43.23 42.91 43.04 43.22 43.84 44.36 45.19 46.45 46.59 46.43 45.83 44.97 43.21 41.59 40.65 39.90 38.98 38.74 37.93 38.41
42.88 42.73 41.94 41.85 42.66 43.59 43.48 44.67 45.32 45.89 45.76 45.56 45.51 44.93 43.63 42.10 41.75 39.87 38.71 38.34 37.77 37.59
41.22 40.73 40.25 40.49 41.23 41.81 42.06 42.65 43.44 44.20 43.99 44.25 44.30 44.02 43.68 43.29 42.27 41.09 39.96 38.79 37.79 37.29
39.73 39.76 39.84 40.44 40.63 40.81 40.83 40.25 40.57 41.42 42.09 42.45 42.69 42.88 42.60 42.56 41.48 40.77 40.37 39.91 38.80 37.75
40.19 40.19 40.02 39.94 39.87 40.01 40.11 40.45 40.62 40.47 40.45 40.38 40.66 41.88 40.43 40.21 39.06 38.56 39.22 39.72 39.74 38.48
39.84 39.53 39.03 39.17 39.09 38.93 39.10 39.13 39.12 38.94 39.28 39.04 40.98 43.91 44.46 42.66 38.45 38.66 38.54 38.18 38.95 39.14
39.35 38.74 38.69 38.83 38.48 37.94 37.56 37.62 37.37 37.52 37.79 37.38 37.70 43.32 43.47 42.63 38.58 37.89 37.57 37.79 38.43 38.66
39.05 38.42 38.27 37.79 37.39 37.05 37.07 36.98 36.93 36.96 37.29 36.76 37.95 42.58 42.84 41.22 36.88 36.65 36.92 37.70 38.06 37.50
38.67 37.65 37.33 36.78 36.26 36.71 36.45 36.03 36.07 36.93 35.92 35.09 35.38 40.87 41.57 39.58 34.77 35.21 35.57 37.23 37.58 38.36
38.04 37.38 36.40 36.24 35.73 36.10 35.75 35.80 35.66 35.70 35.34 37.23 35.90 39.43 41.73 38.07 34.54 33.05 34.46 35.57 36.86 41.15
37.35 36.28 35.98 35.46 34.47 34.13 33.77 34.14 33.56 33.98 34.55 34.33 35.17 34.68 40.02 39.17 34.74 34.35 34.24 34.19 34.72 37.11

GFSNIL_sfc_wetblb_171.txt.gz
Wetbulb
47.84 46.82 45.46 44.65 44.30 43.79 43.97 44.66 46.19 46.62 46.67 45.35 44.95 44.32 43.13 41.03 40.18 39.50 39.11 38.36 38.99 39.79
44.70 43.98 43.25 42.89 42.47 42.44 43.10 45.28 45.17 45.20 45.76 46.13 44.90 44.23 42.34 40.46 39.54 38.89 38.56 37.96 38.04 38.69
42.75 42.66 42.06 41.45 41.27 41.57 42.00 42.99 43.10 43.94 45.18 45.77 45.51 44.64 42.69 40.87 40.09 38.74 38.32 38.41 37.70 37.95
41.85 42.05 41.70 41.26 41.29 41.66 42.24 42.88 43.46 44.26 44.86 45.04 44.91 44.65 42.94 41.44 40.61 39.40 38.60 37.95 37.31 37.23
41.35 41.05 40.10 39.84 40.33 40.81 40.79 42.06 42.65 43.27 43.86 44.15 44.17 43.96 43.10 42.04 41.56 39.70 38.67 38.26 37.25 36.77
39.33 38.90 38.61 38.81 39.53 39.91 39.41 39.29 39.72 40.61 40.83 41.38 41.99 42.04 42.14 42.09 41.75 40.98 40.05 38.97 37.56 36.96
38.49 38.51 38.47 38.92 39.18 39.30 39.26 38.77 38.86 39.11 39.33 39.62 39.84 40.26 40.35 40.53 39.86 39.35 39.43 39.38 38.61 37.61
39.03 38.86 38.49 38.35 38.45 38.49 38.24 38.55 38.73 38.50 38.54 38.72 39.05 40.39 39.36 39.32 38.13 37.18 36.99 37.58 38.50 38.66
38.67 38.44 37.81 37.56 37.72 37.49 37.33 37.24 37.41 37.20 37.39 37.17 38.77 42.65 44.25 42.13 37.76 37.47 37.01 36.39 37.19 37.90
38.16 37.63 37.50 37.44 36.99 36.60 36.04 35.98 35.79 35.92 36.23 36.17 36.44 41.49 43.15 43.85 38.07 36.48 35.63 35.33 36.03 37.07
37.78 37.28 37.09 36.52 36.01 35.55 35.78 35.67 35.64 35.85 36.06 35.84 36.93 40.94 41.91 42.53 36.83 34.68 34.50 34.87 35.20 35.26
37.61 36.71 36.15 35.64 35.18 35.29 35.02 35.09 35.10 35.93 35.47 34.93 35.63 39.46 41.11 41.17 35.28 33.84 33.35 34.29 34.67 35.11
37.15 36.46 35.62 35.25 35.05 35.40 35.01 34.84 35.20 35.32 35.23 36.44 35.72 38.57 40.42 40.53 33.88 32.09 32.74 33.05 34.18 38.14
35.93 35.20 34.66 34.26 33.88 33.29 32.74 32.77 32.24 32.34 33.19 32.81 33.65 34.01 39.87 41.19 34.41 33.00 32.59 32.55 33.22 34.45